Year,Month,Day,Hour,Minute,Value (Times are PST for windgust in km/hr)
2010,03,31,00,00,4.80
2010,03,31,00,01,4.80
2010,03,31,00,02,3.20
2010,03,31,00,03,3.20
2010,03,31,00,04,3.20
2010,03,31,00,05,0.00
2010,03,31,00,06,0.00
2010,03,31,00,07,0.00
2010,03,31,00,08,0.00
2010,03,31,00,09,0.00
2010,03,31,00,10,0.00
2010,03,31,00,11,1.60
2010,03,31,00,12,1.60
2010,03,31,00,13,0.00
2010,03,31,00,14,0.00
2010,03,31,00,15,0.00
2010,03,31,00,16,0.00
2010,03,31,00,17,0.00
2010,03,31,00,18,0.00
2010,03,31,00,19,0.00
2010,03,31,00,20,0.00
2010,03,31,00,21,0.00
2010,03,31,00,22,0.00
2010,03,31,00,23,6.40
2010,03,31,00,24,3.20
2010,03,31,00,25,1.60
2010,03,31,00,26,4.80
2010,03,31,00,27,0.00
2010,03,31,00,28,1.60
2010,03,31,00,29,1.60
2010,03,31,00,30,0.00
2010,03,31,00,31,1.60
2010,03,31,00,32,1.60
2010,03,31,00,33,4.80
2010,03,31,00,34,3.20
2010,03,31,00,35,1.60
2010,03,31,00,36,4.80
2010,03,31,00,37,4.80
2010,03,31,00,38,0.00
2010,03,31,00,39,3.20
2010,03,31,00,40,1.60
2010,03,31,00,41,1.60
2010,03,31,00,42,0.00
2010,03,31,00,43,1.60
2010,03,31,00,44,1.60
2010,03,31,00,45,0.00
2010,03,31,00,46,1.60
2010,03,31,00,47,1.60
2010,03,31,00,48,1.60
2010,03,31,00,49,0.00
2010,03,31,00,50,1.60
2010,03,31,00,51,3.20
2010,03,31,00,52,1.60
2010,03,31,00,53,0.00
2010,03,31,00,54,0.00
2010,03,31,00,55,0.00
2010,03,31,00,56,0.00
2010,03,31,00,57,0.00
2010,03,31,00,58,0.00
2010,03,31,00,59,0.00
2010,03,31,01,00,1.60
2010,03,31,01,01,0.00
2010,03,31,01,02,0.00
2010,03,31,01,03,1.60
2010,03,31,01,04,0.00
2010,03,31,01,05,0.00
2010,03,31,01,06,0.00
2010,03,31,01,07,0.00
2010,03,31,01,08,0.00
2010,03,31,01,09,0.00
2010,03,31,01,10,0.00
2010,03,31,01,11,0.00
2010,03,31,01,12,0.00
2010,03,31,01,13,0.00
2010,03,31,01,14,0.00
2010,03,31,01,15,1.60
2010,03,31,01,16,0.00
2010,03,31,01,17,0.00
2010,03,31,01,18,0.00
2010,03,31,01,19,1.60
2010,03,31,01,20,0.00
2010,03,31,01,21,0.00
2010,03,31,01,22,0.00
2010,03,31,01,23,0.00
2010,03,31,01,24,0.00
2010,03,31,01,25,1.60
2010,03,31,01,26,0.00
2010,03,31,01,27,0.00
2010,03,31,01,28,0.00
2010,03,31,01,29,1.60
2010,03,31,01,30,0.00
2010,03,31,01,31,0.00
2010,03,31,01,32,0.00
2010,03,31,01,33,0.00
2010,03,31,01,34,0.00
2010,03,31,01,35,0.00
2010,03,31,01,36,1.60
2010,03,31,01,37,0.00
2010,03,31,01,38,0.00
2010,03,31,01,39,0.00
2010,03,31,01,40,0.00
2010,03,31,01,41,0.00
2010,03,31,01,42,0.00
2010,03,31,01,43,0.00
2010,03,31,01,44,0.00
2010,03,31,01,45,0.00
2010,03,31,01,46,0.00
2010,03,31,01,47,1.60
2010,03,31,01,48,1.60
2010,03,31,01,49,0.00
2010,03,31,01,50,0.00
2010,03,31,01,51,4.80
2010,03,31,01,52,4.80
2010,03,31,01,53,3.20
2010,03,31,01,54,1.60
2010,03,31,01,55,1.60
2010,03,31,01,56,1.60
2010,03,31,01,57,0.00
2010,03,31,01,58,3.20
2010,03,31,01,59,1.60
2010,03,31,02,00,0.00
2010,03,31,02,01,1.60
2010,03,31,02,02,0.00
2010,03,31,02,03,1.60
2010,03,31,02,04,0.00
2010,03,31,02,05,0.00
2010,03,31,02,06,0.00
2010,03,31,02,07,0.00
2010,03,31,02,08,0.00
2010,03,31,02,09,0.00
2010,03,31,02,10,0.00
2010,03,31,02,11,0.00
2010,03,31,02,12,0.00
2010,03,31,02,13,0.00
2010,03,31,02,14,0.00
2010,03,31,02,15,0.00
2010,03,31,02,16,0.00
2010,03,31,02,17,0.00
2010,03,31,02,18,0.00
2010,03,31,02,19,0.00
2010,03,31,02,20,0.00
2010,03,31,02,21,0.00
2010,03,31,02,22,0.00
2010,03,31,02,23,0.00
2010,03,31,02,24,0.00
2010,03,31,02,25,0.00
2010,03,31,02,26,0.00
2010,03,31,02,27,0.00
2010,03,31,02,28,0.00
2010,03,31,02,29,0.00
2010,03,31,02,30,0.00
2010,03,31,02,31,0.00
2010,03,31,02,32,1.60
2010,03,31,02,33,0.00
2010,03,31,02,34,0.00
2010,03,31,02,35,0.00
2010,03,31,02,36,0.00
2010,03,31,02,37,1.60
2010,03,31,02,38,1.60
2010,03,31,02,39,0.00
2010,03,31,02,40,3.20
2010,03,31,02,41,1.60
2010,03,31,02,42,0.00
2010,03,31,02,43,0.00
2010,03,31,02,44,0.00
2010,03,31,02,45,0.00
2010,03,31,02,46,0.00
2010,03,31,02,47,0.00
2010,03,31,02,48,0.00
2010,03,31,02,49,0.00
2010,03,31,02,50,0.00
2010,03,31,02,51,0.00
2010,03,31,02,52,0.00
2010,03,31,02,53,0.00
2010,03,31,02,54,0.00
2010,03,31,02,55,0.00
2010,03,31,02,56,0.00
2010,03,31,02,57,0.00
2010,03,31,02,58,0.00
2010,03,31,02,59,0.00
2010,03,31,03,00,0.00
2010,03,31,03,01,0.00
2010,03,31,03,02,0.00
2010,03,31,03,03,0.00
2010,03,31,03,04,0.00
2010,03,31,03,05,0.00
2010,03,31,03,06,0.00
2010,03,31,03,07,0.00
2010,03,31,03,08,0.00
2010,03,31,03,09,0.00
2010,03,31,03,10,0.00
2010,03,31,03,11,0.00
2010,03,31,03,12,0.00
2010,03,31,03,13,1.60
2010,03,31,03,14,0.00
2010,03,31,03,15,0.00
2010,03,31,03,16,1.60
2010,03,31,03,17,3.20
2010,03,31,03,18,1.60
2010,03,31,03,19,1.60
2010,03,31,03,20,0.00
2010,03,31,03,21,0.00
2010,03,31,03,22,0.00
2010,03,31,03,23,1.60
2010,03,31,03,24,4.80
2010,03,31,03,25,3.20
2010,03,31,03,26,3.20
2010,03,31,03,27,1.60
2010,03,31,03,28,3.20
2010,03,31,03,29,3.20
2010,03,31,03,30,1.60
2010,03,31,03,31,1.60
2010,03,31,03,32,1.60
2010,03,31,03,33,3.20
2010,03,31,03,34,3.20
2010,03,31,03,35,4.80
2010,03,31,03,36,4.80
2010,03,31,03,37,6.40
2010,03,31,03,38,8.10
2010,03,31,03,39,9.60
2010,03,31,03,40,9.60
2010,03,31,03,41,14.50
2010,03,31,03,42,9.60
2010,03,31,03,43,8.10
2010,03,31,03,44,9.60
2010,03,31,03,45,9.60
2010,03,31,03,46,9.60
2010,03,31,03,47,8.10
2010,03,31,03,48,6.40
2010,03,31,03,49,4.80
2010,03,31,03,50,4.80
2010,03,31,03,51,9.60
2010,03,31,03,52,11.30
2010,03,31,03,53,8.10
2010,03,31,03,54,8.10
2010,03,31,03,55,11.30
2010,03,31,03,56,6.40
2010,03,31,03,57,4.80
2010,03,31,03,58,3.20
2010,03,31,03,59,3.20
2010,03,31,04,00,1.60
2010,03,31,04,01,3.20
2010,03,31,04,02,3.20
2010,03,31,04,03,1.60
2010,03,31,04,04,1.60
2010,03,31,04,05,4.80
2010,03,31,04,06,1.60
2010,03,31,04,07,4.80
2010,03,31,04,08,6.40
2010,03,31,04,09,8.10
2010,03,31,04,10,11.30
2010,03,31,04,11,4.80
2010,03,31,04,12,4.80
2010,03,31,04,13,3.20
2010,03,31,04,14,4.80
2010,03,31,04,15,0.00
2010,03,31,04,16,0.00
2010,03,31,04,17,3.20
2010,03,31,04,18,0.00
2010,03,31,04,19,4.80
2010,03,31,04,20,6.40
2010,03,31,04,21,4.80
2010,03,31,04,22,6.40
2010,03,31,04,23,6.40
2010,03,31,04,24,6.40
2010,03,31,04,25,9.60
2010,03,31,04,26,6.40
2010,03,31,04,27,6.40
2010,03,31,04,28,8.10
2010,03,31,04,29,6.40
2010,03,31,04,30,4.80
2010,03,31,04,31,6.40
2010,03,31,04,32,8.10
2010,03,31,04,33,8.10
2010,03,31,04,34,8.10
2010,03,31,04,35,6.40
2010,03,31,04,36,9.60
2010,03,31,04,37,9.60
2010,03,31,04,38,6.40
2010,03,31,04,39,9.60
2010,03,31,04,40,6.40
2010,03,31,04,41,6.40
2010,03,31,04,42,11.30
2010,03,31,04,43,9.60
2010,03,31,04,44,4.80
2010,03,31,04,45,6.40
2010,03,31,04,46,8.10
2010,03,31,04,47,4.80
2010,03,31,04,48,6.40
2010,03,31,04,49,8.10
2010,03,31,04,50,8.10
2010,03,31,04,51,6.40
2010,03,31,04,52,6.40
2010,03,31,04,53,4.80
2010,03,31,04,54,6.40
2010,03,31,04,55,4.80
2010,03,31,04,56,6.40
2010,03,31,04,57,8.10
2010,03,31,04,58,9.60
2010,03,31,04,59,6.40
2010,03,31,05,00,6.40
2010,03,31,05,01,4.80
2010,03,31,05,02,4.80
2010,03,31,05,03,4.80
2010,03,31,05,04,6.40
2010,03,31,05,05,6.40
2010,03,31,05,06,8.10
2010,03,31,05,07,4.80
2010,03,31,05,08,6.40
2010,03,31,05,09,9.60
2010,03,31,05,10,8.10
2010,03,31,05,11,8.10
2010,03,31,05,12,8.10
2010,03,31,05,13,6.40
2010,03,31,05,14,3.20
2010,03,31,05,15,4.80
2010,03,31,05,16,6.40
2010,03,31,05,17,6.40
2010,03,31,05,18,4.80
2010,03,31,05,19,3.20
2010,03,31,05,20,1.60
2010,03,31,05,21,4.80
2010,03,31,05,22,4.80
2010,03,31,05,23,4.80
2010,03,31,05,24,8.10
2010,03,31,05,25,4.80
2010,03,31,05,26,3.20
2010,03,31,05,27,3.20
2010,03,31,05,28,4.80
2010,03,31,05,29,6.40
2010,03,31,05,30,6.40
2010,03,31,05,31,4.80
2010,03,31,05,32,4.80
2010,03,31,05,33,3.20
2010,03,31,05,34,1.60
2010,03,31,05,35,4.80
2010,03,31,05,36,4.80
2010,03,31,05,37,4.80
2010,03,31,05,38,6.40
2010,03,31,05,39,6.40
2010,03,31,05,40,4.80
2010,03,31,05,41,6.40
2010,03,31,05,42,4.80
2010,03,31,05,43,6.40
2010,03,31,05,44,4.80
2010,03,31,05,45,4.80
2010,03,31,05,46,4.80
2010,03,31,05,47,4.80
2010,03,31,05,48,6.40
2010,03,31,05,49,4.80
2010,03,31,05,50,6.40
2010,03,31,05,51,4.80
2010,03,31,05,52,6.40
2010,03,31,05,53,6.40
2010,03,31,05,54,6.40
2010,03,31,05,55,6.40
2010,03,31,05,56,6.40
2010,03,31,05,57,4.80
2010,03,31,05,58,4.80
2010,03,31,05,59,4.80
2010,03,31,06,00,4.80
2010,03,31,06,01,4.80
2010,03,31,06,02,4.80
2010,03,31,06,03,3.20
2010,03,31,06,04,4.80
2010,03,31,06,05,3.20
2010,03,31,06,06,1.60
2010,03,31,06,07,3.20
2010,03,31,06,08,3.20
2010,03,31,06,09,4.80
2010,03,31,06,10,1.60
2010,03,31,06,11,4.80
2010,03,31,06,12,3.20
2010,03,31,06,13,0.00
2010,03,31,06,14,0.00
2010,03,31,06,15,0.00
2010,03,31,06,16,0.00
2010,03,31,06,17,0.00
2010,03,31,06,18,0.00
2010,03,31,06,19,0.00
2010,03,31,06,20,0.00
2010,03,31,06,21,0.00
2010,03,31,06,22,0.00
2010,03,31,06,23,0.00
2010,03,31,06,24,0.00
2010,03,31,06,25,0.00
2010,03,31,06,26,0.00
2010,03,31,06,27,1.60
2010,03,31,06,28,0.00
2010,03,31,06,29,0.00
2010,03,31,06,30,0.00
2010,03,31,06,31,0.00
2010,03,31,06,32,0.00
2010,03,31,06,33,0.00
2010,03,31,06,34,0.00
2010,03,31,06,35,0.00
2010,03,31,06,36,0.00
2010,03,31,06,37,0.00
2010,03,31,06,38,0.00
2010,03,31,06,39,0.00
2010,03,31,06,40,0.00
2010,03,31,06,41,0.00
2010,03,31,06,42,1.60
2010,03,31,06,43,0.00
2010,03,31,06,44,0.00
2010,03,31,06,45,1.60
2010,03,31,06,46,0.00
2010,03,31,06,47,0.00
2010,03,31,06,48,1.60
2010,03,31,06,49,0.00
2010,03,31,06,50,1.60
2010,03,31,06,51,0.00
2010,03,31,06,52,1.60
2010,03,31,06,53,0.00
2010,03,31,06,54,0.00
2010,03,31,06,55,1.60
2010,03,31,06,56,0.00
2010,03,31,06,57,0.00
2010,03,31,06,58,0.00
2010,03,31,06,59,0.00
2010,03,31,07,00,0.00
2010,03,31,07,01,0.00
2010,03,31,07,02,0.00
2010,03,31,07,03,0.00
2010,03,31,07,04,0.00
2010,03,31,07,05,0.00
2010,03,31,07,06,0.00
2010,03,31,07,07,0.00
2010,03,31,07,08,0.00
2010,03,31,07,09,3.20
2010,03,31,07,10,3.20
2010,03,31,07,11,4.80
2010,03,31,07,12,1.60
2010,03,31,07,13,1.60
2010,03,31,07,14,6.40
2010,03,31,07,15,4.80
2010,03,31,07,16,3.20
2010,03,31,07,17,3.20
2010,03,31,07,18,3.20
2010,03,31,07,19,1.60
2010,03,31,07,20,6.40
2010,03,31,07,21,4.80
2010,03,31,07,22,6.40
2010,03,31,07,23,6.40
2010,03,31,07,24,4.80
2010,03,31,07,25,4.80
2010,03,31,07,26,4.80
2010,03,31,07,27,4.80
2010,03,31,07,28,6.40
2010,03,31,07,29,6.40
2010,03,31,07,30,6.40
2010,03,31,07,31,9.60
2010,03,31,07,32,6.40
2010,03,31,07,33,6.40
2010,03,31,07,34,9.60
2010,03,31,07,35,6.40
2010,03,31,07,36,6.40
2010,03,31,07,37,8.10
2010,03,31,07,38,9.60
2010,03,31,07,39,8.10
2010,03,31,07,40,8.10
2010,03,31,07,41,9.60
2010,03,31,07,42,8.10
2010,03,31,07,43,8.10
2010,03,31,07,44,6.40
2010,03,31,07,45,4.80
2010,03,31,07,46,6.40
2010,03,31,07,47,6.40
2010,03,31,07,48,8.10
2010,03,31,07,49,8.10
2010,03,31,07,50,6.40
2010,03,31,07,51,8.10
2010,03,31,07,52,8.10
2010,03,31,07,53,6.40
2010,03,31,07,54,8.10
2010,03,31,07,55,9.60
2010,03,31,07,56,9.60
2010,03,31,07,57,6.40
2010,03,31,07,58,9.60
2010,03,31,07,59,9.60
2010,03,31,08,00,9.60
2010,03,31,08,01,9.60
2010,03,31,08,02,8.10
2010,03,31,08,03,8.10
2010,03,31,08,04,8.10
2010,03,31,08,05,6.40
2010,03,31,08,06,6.40
2010,03,31,08,07,8.10
2010,03,31,08,08,9.60
2010,03,31,08,09,8.10
2010,03,31,08,10,8.10
2010,03,31,08,11,8.10
2010,03,31,08,12,8.10
2010,03,31,08,13,6.40
2010,03,31,08,14,6.40
2010,03,31,08,15,6.40
2010,03,31,08,16,6.40
2010,03,31,08,17,6.40
2010,03,31,08,18,9.60
2010,03,31,08,19,9.60
2010,03,31,08,20,8.10
2010,03,31,08,21,9.60
2010,03,31,08,22,8.10
2010,03,31,08,23,9.60
2010,03,31,08,24,11.30
2010,03,31,08,25,8.10
2010,03,31,08,26,8.10
2010,03,31,08,27,9.60
2010,03,31,08,28,9.60
2010,03,31,08,29,9.60
2010,03,31,08,30,9.60
2010,03,31,08,31,4.80
2010,03,31,08,32,6.40
2010,03,31,08,33,4.80
2010,03,31,08,34,6.40
2010,03,31,08,35,8.10
2010,03,31,08,36,6.40
2010,03,31,08,37,6.40
2010,03,31,08,38,8.10
2010,03,31,08,39,6.40
2010,03,31,08,40,8.10
2010,03,31,08,41,8.10
2010,03,31,08,42,4.80
2010,03,31,08,43,3.20
2010,03,31,08,44,3.20
2010,03,31,08,45,3.20
2010,03,31,08,46,4.80
2010,03,31,08,47,9.60
2010,03,31,08,48,6.40
2010,03,31,08,49,4.80
2010,03,31,08,50,6.40
2010,03,31,08,51,6.40
2010,03,31,08,52,6.40
2010,03,31,08,53,1.60
2010,03,31,08,54,4.80
2010,03,31,08,55,6.40
2010,03,31,08,56,8.10
2010,03,31,08,57,8.10
2010,03,31,08,58,6.40
2010,03,31,08,59,9.60
2010,03,31,09,00,9.60
2010,03,31,09,01,6.40
2010,03,31,09,02,8.10
2010,03,31,09,03,6.40
2010,03,31,09,04,11.30
2010,03,31,09,05,14.50
2010,03,31,09,06,9.60
2010,03,31,09,07,11.30
2010,03,31,09,08,11.30
2010,03,31,09,09,11.30
2010,03,31,09,10,16.10
2010,03,31,09,11,11.30
2010,03,31,09,12,11.30
2010,03,31,09,13,12.90
2010,03,31,09,14,8.10
2010,03,31,09,15,8.10
2010,03,31,09,16,8.10
2010,03,31,09,17,8.10
2010,03,31,09,18,14.50
2010,03,31,09,19,8.10
2010,03,31,09,20,6.40
2010,03,31,09,21,11.30
2010,03,31,09,22,17.70
2010,03,31,09,23,11.30
2010,03,31,09,24,11.30
2010,03,31,09,25,16.10
2010,03,31,09,26,8.10
2010,03,31,09,27,9.60
2010,03,31,09,28,12.90
2010,03,31,09,29,8.10
2010,03,31,09,30,16.10
2010,03,31,09,31,11.30
2010,03,31,09,32,16.10
2010,03,31,09,33,11.30
2010,03,31,09,34,14.50
2010,03,31,09,35,8.10
2010,03,31,09,36,11.30
2010,03,31,09,37,9.60
2010,03,31,09,38,6.40
2010,03,31,09,39,4.80
2010,03,31,09,40,4.80
2010,03,31,09,41,8.10
2010,03,31,09,42,9.60
2010,03,31,09,43,14.50
2010,03,31,09,44,11.30
2010,03,31,09,45,8.10
2010,03,31,09,46,9.60
2010,03,31,09,47,6.40
2010,03,31,09,48,12.90
2010,03,31,09,49,11.30
2010,03,31,09,50,9.60
2010,03,31,09,51,4.80
2010,03,31,09,52,9.60
2010,03,31,09,53,8.10
2010,03,31,09,54,11.30
2010,03,31,09,55,9.60
2010,03,31,09,56,11.30
2010,03,31,09,57,8.10
2010,03,31,09,58,9.60
2010,03,31,09,59,9.60
2010,03,31,10,00,14.50
2010,03,31,10,01,14.50
2010,03,31,10,02,8.10
2010,03,31,10,03,8.10
2010,03,31,10,04,9.60
2010,03,31,10,05,9.60
2010,03,31,10,06,11.30
2010,03,31,10,07,11.30
2010,03,31,10,08,11.30
2010,03,31,10,09,14.50
2010,03,31,10,10,11.30
2010,03,31,10,11,11.30
2010,03,31,10,12,9.60
2010,03,31,10,13,11.30
2010,03,31,10,14,11.30
2010,03,31,10,15,9.60
2010,03,31,10,16,8.10
2010,03,31,10,17,8.10
2010,03,31,10,18,4.80
2010,03,31,10,19,11.30
2010,03,31,10,20,9.60
2010,03,31,10,21,6.40
2010,03,31,10,22,4.80
2010,03,31,10,23,8.10
2010,03,31,10,24,8.10
2010,03,31,10,25,8.10
2010,03,31,10,26,8.10
2010,03,31,10,27,8.10
2010,03,31,10,28,11.30
2010,03,31,10,29,9.60
2010,03,31,10,30,6.40
2010,03,31,10,31,9.60
2010,03,31,10,32,8.10
2010,03,31,10,33,16.10
2010,03,31,10,34,19.30
2010,03,31,10,35,16.10
2010,03,31,10,36,11.30
2010,03,31,10,37,12.90
2010,03,31,10,38,11.30
2010,03,31,10,39,11.30
2010,03,31,10,40,16.10
2010,03,31,10,41,14.50
2010,03,31,10,42,14.50
2010,03,31,10,43,17.70
2010,03,31,10,44,8.10
2010,03,31,10,45,8.10
2010,03,31,10,46,14.50
2010,03,31,10,47,16.10
2010,03,31,10,48,17.70
2010,03,31,10,49,8.10
2010,03,31,10,50,8.10
2010,03,31,10,51,17.70
2010,03,31,10,52,16.10
2010,03,31,10,53,9.60
2010,03,31,10,54,16.10
2010,03,31,10,55,16.10
2010,03,31,10,56,9.60
2010,03,31,10,57,9.60
2010,03,31,10,58,9.60
2010,03,31,10,59,6.40
2010,03,31,11,00,9.60
2010,03,31,11,01,6.40
2010,03,31,11,02,9.60
2010,03,31,11,03,8.10
2010,03,31,11,04,8.10
2010,03,31,11,05,14.50
2010,03,31,11,06,12.90
2010,03,31,11,07,17.70
2010,03,31,11,08,16.10
2010,03,31,11,09,11.30
2010,03,31,11,10,11.30
2010,03,31,11,11,11.30
2010,03,31,11,12,12.90
2010,03,31,11,13,14.50
2010,03,31,11,14,11.30
2010,03,31,11,15,9.60
2010,03,31,11,16,17.70
2010,03,31,11,17,16.10
2010,03,31,11,18,11.30
2010,03,31,11,19,19.30
2010,03,31,11,20,19.30
2010,03,31,11,21,16.10
2010,03,31,11,22,14.50
2010,03,31,11,23,16.10
2010,03,31,11,24,14.50
2010,03,31,11,25,8.10
2010,03,31,11,26,11.30
2010,03,31,11,27,14.50
2010,03,31,11,28,17.70
2010,03,31,11,29,16.10
2010,03,31,11,30,11.30
2010,03,31,11,31,16.10
2010,03,31,11,32,11.30
2010,03,31,11,33,20.90
2010,03,31,11,34,16.10
2010,03,31,11,35,16.10
2010,03,31,11,36,11.30
2010,03,31,11,37,11.30
2010,03,31,11,38,14.50
2010,03,31,11,39,20.90
2010,03,31,11,40,17.70
2010,03,31,11,41,16.10
2010,03,31,11,42,19.30
2010,03,31,11,43,14.50
2010,03,31,11,44,16.10
2010,03,31,11,45,24.20
2010,03,31,11,46,16.10
2010,03,31,11,47,17.70
2010,03,31,11,48,14.50
2010,03,31,11,49,9.60
2010,03,31,11,50,17.70
2010,03,31,11,51,20.90
2010,03,31,11,52,19.30
2010,03,31,11,53,14.50
2010,03,31,11,54,11.30
2010,03,31,11,55,9.60
2010,03,31,11,56,16.10
2010,03,31,11,57,19.30
2010,03,31,11,58,14.50
2010,03,31,11,59,11.30
2010,03,31,12,00,14.50
2010,03,31,12,01,20.90
2010,03,31,12,02,14.50
2010,03,31,12,03,9.60
2010,03,31,12,04,17.70
2010,03,31,12,05,20.90
2010,03,31,12,06,16.10
2010,03,31,12,07,11.30
2010,03,31,12,08,11.30
2010,03,31,12,09,12.90
2010,03,31,12,10,19.30
2010,03,31,12,11,11.30
2010,03,31,12,12,8.10
2010,03,31,12,13,8.10
2010,03,31,12,14,16.10
2010,03,31,12,15,14.50
2010,03,31,12,16,14.50
2010,03,31,12,17,11.30
2010,03,31,12,18,9.60
2010,03,31,12,19,16.10
2010,03,31,12,20,17.70
2010,03,31,12,21,16.10
2010,03,31,12,22,17.70
2010,03,31,12,23,14.50
2010,03,31,12,24,9.60
2010,03,31,12,25,11.30
2010,03,31,12,26,16.10
2010,03,31,12,27,16.10
2010,03,31,12,28,16.10
2010,03,31,12,29,16.10
2010,03,31,12,30,14.50
2010,03,31,12,31,16.10
2010,03,31,12,32,16.10
2010,03,31,12,33,11.30
2010,03,31,12,34,14.50
2010,03,31,12,35,8.10
2010,03,31,12,36,9.60
2010,03,31,12,37,11.30
2010,03,31,12,38,14.50
2010,03,31,12,39,9.60
2010,03,31,12,40,16.10
2010,03,31,12,41,8.10
2010,03,31,12,42,11.30
2010,03,31,12,43,16.10
2010,03,31,12,44,16.10
2010,03,31,12,45,11.30
2010,03,31,12,46,8.10
2010,03,31,12,47,11.30
2010,03,31,12,48,14.50
2010,03,31,12,49,14.50
2010,03,31,12,50,16.10
2010,03,31,12,51,14.50
2010,03,31,12,52,9.60
2010,03,31,12,53,6.40
2010,03,31,12,54,8.10
2010,03,31,12,55,11.30
2010,03,31,12,56,16.10
2010,03,31,12,57,16.10
2010,03,31,12,58,14.50
2010,03,31,12,59,9.60
2010,03,31,13,00,14.50
2010,03,31,13,01,11.30
2010,03,31,13,02,17.70
2010,03,31,13,03,8.10
2010,03,31,13,04,14.50
2010,03,31,13,05,16.10
2010,03,31,13,06,11.30
2010,03,31,13,07,8.10
2010,03,31,13,08,8.10
2010,03,31,13,09,9.60
2010,03,31,13,10,11.30
2010,03,31,13,11,6.40
2010,03,31,13,12,11.30
2010,03,31,13,13,8.10
2010,03,31,13,14,8.10
2010,03,31,13,15,14.50
2010,03,31,13,16,14.50
2010,03,31,13,17,12.90
2010,03,31,13,18,16.10
2010,03,31,13,19,11.30
2010,03,31,13,20,11.30
2010,03,31,13,21,8.10
2010,03,31,13,22,11.30
2010,03,31,13,23,14.50
2010,03,31,13,24,9.60
2010,03,31,13,25,6.40
2010,03,31,13,26,9.60
2010,03,31,13,27,11.30
2010,03,31,13,28,11.30
2010,03,31,13,29,11.30
2010,03,31,13,30,8.10
2010,03,31,13,31,11.30
2010,03,31,13,32,11.30
2010,03,31,13,33,11.30
2010,03,31,13,34,6.40
2010,03,31,13,35,9.60
2010,03,31,13,36,9.60
2010,03,31,13,37,6.40
2010,03,31,13,38,8.10
2010,03,31,13,39,4.80
2010,03,31,13,40,11.30
2010,03,31,13,41,9.60
2010,03,31,13,42,9.60
2010,03,31,13,43,12.90
2010,03,31,13,44,11.30
2010,03,31,13,45,9.60
2010,03,31,13,46,8.10
2010,03,31,13,47,9.60
2010,03,31,13,48,6.40
2010,03,31,13,49,11.30
2010,03,31,13,50,11.30
2010,03,31,13,51,9.60
2010,03,31,13,52,6.40
2010,03,31,13,53,3.20
2010,03,31,13,54,11.30
2010,03,31,13,55,16.10
2010,03,31,13,56,14.50
2010,03,31,13,57,6.40
2010,03,31,13,58,8.10
2010,03,31,13,59,9.60
2010,03,31,14,00,9.60
2010,03,31,14,01,12.90
2010,03,31,14,02,9.60
2010,03,31,14,03,16.10
2010,03,31,14,04,12.90
2010,03,31,14,05,9.60
2010,03,31,14,06,8.10
2010,03,31,14,07,12.90
2010,03,31,14,08,14.50
2010,03,31,14,09,16.10
2010,03,31,14,10,16.10
2010,03,31,14,11,14.50
2010,03,31,14,12,14.50
2010,03,31,14,13,6.40
2010,03,31,14,14,12.90
2010,03,31,14,15,11.30
2010,03,31,14,16,9.60
2010,03,31,14,17,9.60
2010,03,31,14,18,14.50
2010,03,31,14,19,8.10
2010,03,31,14,20,9.60
2010,03,31,14,21,14.50
2010,03,31,14,22,8.10
2010,03,31,14,23,8.10
2010,03,31,14,24,9.60
2010,03,31,14,25,12.90
2010,03,31,14,26,9.60
2010,03,31,14,27,9.60
2010,03,31,14,28,14.50
2010,03,31,14,29,12.90
2010,03,31,14,30,16.10
2010,03,31,14,31,12.90
2010,03,31,14,32,16.10
2010,03,31,14,33,16.10
2010,03,31,14,34,11.30
2010,03,31,14,35,9.60
2010,03,31,14,36,11.30
2010,03,31,14,37,14.50
2010,03,31,14,38,11.30
2010,03,31,14,39,14.50
2010,03,31,14,40,12.90
2010,03,31,14,41,9.60
2010,03,31,14,42,9.60
2010,03,31,14,43,8.10
2010,03,31,14,44,6.40
2010,03,31,14,45,6.40
2010,03,31,14,46,8.10
2010,03,31,14,47,8.10
2010,03,31,14,48,9.60
2010,03,31,14,49,8.10
2010,03,31,14,50,14.50
2010,03,31,14,51,8.10
2010,03,31,14,52,11.30
2010,03,31,14,53,8.10
2010,03,31,14,54,4.80
2010,03,31,14,55,11.30
2010,03,31,14,56,14.50
2010,03,31,14,57,12.90
2010,03,31,14,58,8.10
2010,03,31,14,59,9.60
2010,03,31,15,00,11.30
2010,03,31,15,01,11.30
2010,03,31,15,02,8.10
2010,03,31,15,03,9.60
2010,03,31,15,04,14.50
2010,03,31,15,05,9.60
2010,03,31,15,06,9.60
2010,03,31,15,07,9.60
2010,03,31,15,08,9.60
2010,03,31,15,09,11.30
2010,03,31,15,10,9.60
2010,03,31,15,11,8.10
2010,03,31,15,12,8.10
2010,03,31,15,13,6.40
2010,03,31,15,14,12.90
2010,03,31,15,15,16.10
2010,03,31,15,16,6.40
2010,03,31,15,17,4.80
2010,03,31,15,18,8.10
2010,03,31,15,19,8.10
2010,03,31,15,20,9.60
2010,03,31,15,21,6.40
2010,03,31,15,22,4.80
2010,03,31,15,23,6.40
2010,03,31,15,24,8.10
2010,03,31,15,25,6.40
2010,03,31,15,26,6.40
2010,03,31,15,27,3.20
2010,03,31,15,28,1.60
2010,03,31,15,29,6.40
2010,03,31,15,30,8.10
2010,03,31,15,31,6.40
2010,03,31,15,32,4.80
2010,03,31,15,33,11.30
2010,03,31,15,34,9.60
2010,03,31,15,35,8.10
2010,03,31,15,36,8.10
2010,03,31,15,37,9.60
2010,03,31,15,38,9.60
2010,03,31,15,39,8.10
2010,03,31,15,40,12.90
2010,03,31,15,41,9.60
2010,03,31,15,42,14.50
2010,03,31,15,43,11.30
2010,03,31,15,44,11.30
2010,03,31,15,45,9.60
2010,03,31,15,46,8.10
2010,03,31,15,47,8.10
2010,03,31,15,48,6.40
2010,03,31,15,49,11.30
2010,03,31,15,50,11.30
2010,03,31,15,51,4.80
2010,03,31,15,52,9.60
2010,03,31,15,53,14.50
2010,03,31,15,54,9.60
2010,03,31,15,55,8.10
2010,03,31,15,56,9.60
2010,03,31,15,57,9.60
2010,03,31,15,58,9.60
2010,03,31,15,59,9.60
2010,03,31,16,00,6.40
2010,03,31,16,01,6.40
2010,03,31,16,02,3.20
2010,03,31,16,03,1.60
2010,03,31,16,04,8.10
2010,03,31,16,05,9.60
2010,03,31,16,06,9.60
2010,03,31,16,07,4.80
2010,03,31,16,08,1.60
2010,03,31,16,09,4.80
2010,03,31,16,10,8.10
2010,03,31,16,11,6.40
2010,03,31,16,12,4.80
2010,03,31,16,13,4.80
2010,03,31,16,14,4.80
2010,03,31,16,15,3.20
2010,03,31,16,16,3.20
2010,03,31,16,17,4.80
2010,03,31,16,18,6.40
2010,03,31,16,19,4.80
2010,03,31,16,20,6.40
2010,03,31,16,21,4.80
2010,03,31,16,22,9.60
2010,03,31,16,23,6.40
2010,03,31,16,24,9.60
2010,03,31,16,25,9.60
2010,03,31,16,26,11.30
2010,03,31,16,27,9.60
2010,03,31,16,28,8.10
2010,03,31,16,29,8.10
2010,03,31,16,30,8.10
2010,03,31,16,31,8.10
2010,03,31,16,32,4.80
2010,03,31,16,33,6.40
2010,03,31,16,34,3.20
2010,03,31,16,35,4.80
2010,03,31,16,36,6.40
2010,03,31,16,37,4.80
2010,03,31,16,38,6.40
2010,03,31,16,39,6.40
2010,03,31,16,40,6.40
2010,03,31,16,41,3.20
2010,03,31,16,42,3.20
2010,03,31,16,43,3.20
2010,03,31,16,44,6.40
2010,03,31,16,45,4.80
2010,03,31,16,46,4.80
2010,03,31,16,47,1.60
2010,03,31,16,48,4.80
2010,03,31,16,49,4.80
2010,03,31,16,50,6.40
2010,03,31,16,51,6.40
2010,03,31,16,52,3.20
2010,03,31,16,53,8.10
2010,03,31,16,54,8.10
2010,03,31,16,55,6.40
2010,03,31,16,56,6.40
2010,03,31,16,57,9.60
2010,03,31,16,58,8.10
2010,03,31,16,59,6.40
2010,03,31,17,00,6.40
2010,03,31,17,01,6.40
2010,03,31,17,02,6.40
2010,03,31,17,03,6.40
2010,03,31,17,04,1.60
2010,03,31,17,05,8.10
2010,03,31,17,06,4.80
2010,03,31,17,07,4.80
2010,03,31,17,08,3.20
2010,03,31,17,09,3.20
2010,03,31,17,10,4.80
2010,03,31,17,11,1.60
2010,03,31,17,12,1.60
2010,03,31,17,13,1.60
2010,03,31,17,14,3.20
2010,03,31,17,15,6.40
2010,03,31,17,16,4.80
2010,03,31,17,17,1.60
2010,03,31,17,18,1.60
2010,03,31,17,19,1.60
2010,03,31,17,20,1.60
2010,03,31,17,21,1.60
2010,03,31,17,22,1.60
2010,03,31,17,23,1.60
2010,03,31,17,24,1.60
2010,03,31,17,25,1.60
2010,03,31,17,26,1.60
2010,03,31,17,27,0.00
2010,03,31,17,28,1.60
2010,03,31,17,29,1.60
2010,03,31,17,30,1.60
2010,03,31,17,31,1.60
2010,03,31,17,32,1.60
2010,03,31,17,33,0.00
2010,03,31,17,34,0.00
2010,03,31,17,35,4.80
2010,03,31,17,36,1.60
2010,03,31,17,37,4.80
2010,03,31,17,38,3.20
2010,03,31,17,39,8.10
2010,03,31,17,40,6.40
2010,03,31,17,41,6.40
2010,03,31,17,42,6.40
2010,03,31,17,43,8.10
2010,03,31,17,44,8.10
2010,03,31,17,45,1.60
2010,03,31,17,46,4.80
2010,03,31,17,47,6.40
2010,03,31,17,48,14.50
2010,03,31,17,49,14.50
2010,03,31,17,50,17.70
2010,03,31,17,51,8.10
2010,03,31,17,52,4.80
2010,03,31,17,53,3.20
2010,03,31,17,54,14.50
2010,03,31,17,55,11.30